Regional Weather Roundup
Issued by NWS

Home | Current Version | Previous Version | Graphics & Text | Print | Product List | Glossary On
Versions: 1 2 3 4 5 6 7 8 9 10 11 12 13 14 15 16 17 18 19 20 21 22 23 24 25 26 27 28 29 30 31 32 33 34 35 36 37 38 39 40 41 42 43 44 45 46 47 48 49 50
000
ASUS45 KCYS 302010
RWRWY

WYOMING REGIONAL WEATHER ROUNDUP
NATIONAL WEATHER SERVICE CHEYENNE WY
200 PM MDT SUN AUG 30 2015

NOTE:  "FAIR" INDICATES FEW OR NO CLOUDS BELOW 12,000 FEET
WITH NO SIGNIFICANT WEATHER AND/OR OBSTRUCTIONS TO VISIBILITY.

WYZ001-302100-
YELLOWSTONE NATIONAL PARK

CITY           SKY/WX    TMP DP  RH WIND       PRES   REMARKS
LK YELLOWSTONE   N/A     65  40  39 VRB5      30.18F
W YELLOWSTONE  NOT AVBL

$$
WYZ002>013-054>058-071-098>099-302100-
NORTHERN WYOMING

CITY           SKY/WX    TMP DP  RH WIND       PRES   REMARKS
JACKSON        PTSUNNY   75  43  31 S17         N/A
CODY           FAIR      75  52  43 NE5       29.92F
GREYBULL       FAIR      87  41  19 MISG      29.82F
WORLAND        FAIR      95  39  14 SW10      29.81F HX  91
SHERIDAN       FAIR      85  49  28 N12       29.89F
BUFFALO        FAIR      77  48  35 N21G26    29.95S
GILLETTE       FAIR      95  40  14 W14G22    29.84F HX  91
HULETT         FAIR      90  41  18 W6        29.87F
NEWCASTLE      FAIR      91  36  14 SE6       29.87F

$$
WYZ014>020-022>026-101>103-302100-
CENTRAL WYOMING

CITY           SKY/WX    TMP DP  RH WIND       PRES   REMARKS
BIG PINEY      FAIR      81  36  19 W17G25    30.13S
PINEDALE       FAIR      77  36  22 SW9G20    30.13F
DUBOIS         FAIR      73  32  21 W18G43    30.07F
LANDER         FAIR      87  37  17 W16G31    29.95F
RIVERTON       FAIR      87  37  17 W14       29.95F
CASPER         FAIR      91  37  15 W16       29.98F
DOUGLAS        FAIR      98  37  12 W22G29    29.94F HX  93

$$
WYZ021-027>030-104>119-302100-
SOUTHERN WYOMING

CITY           SKY/WX    TMP DP  RH WIND       PRES   REMARKS
EVANSTON       FAIR      80  38  22 W23G35    30.14F
KEMMERER       FAIR      77  34  20 SW24G40   30.15F
FORT BRIDGER   PTCLDY    79  39  24 W16G23    30.18S
ROCK SPRINGS   CLOUDY    76  42  29 SE6       30.11F
DIXON          MOCLDY    79  39  24 SW21G36   30.21R
RAWLINS        LGT RAIN  79  41  25 S17G26    30.16S
SARATOGA       FAIR      79  36  21 W23G31    30.18S
LARAMIE        FAIR      81  37  20 SW12      30.18F
CHEYENNE       FAIR      91  36  14 SW14      30.08F
TORRINGTON     FAIR      95  42  16 SE8       29.90F HX  91
PINE BLUFFS    FAIR      95  32  11 W5G18     30.02F HX  90

$$


USA.gov is the U.S. government's official web portal to all federal, state and local government web resources and services.